Hourly Weather Roundup
Issued by NWS Central Illinois

Home | Current Version | Previous Version | Text Only | Print | Product List | Glossary On
Versions: 1 2 3 4 5 6 7 8 9 10 11 12 13 14 15 16 17 18 19 20 21 22 23 24 25 26 27 28 29 30 31 32 33 34 35 36 37 38 39 40 41 42 43 44 45 46 47 48 49 50
000
NZUS43 KILX 090110
HWRILX

AREA WEATHER ROUNDUP
NATIONAL WEATHER SERVICE, LINCOLN IL
700 PM CST THU DEC 08 2016


CITY           SKY/WX    TMP DP  RH WIND       PRES   REMARKS
BLOOMINGTON    FLURRIES  20  14  77 NW17      30.47R WCI   5
CHAMPAIGN      FLURRIES  21  12  68 W17       30.48R WCI   7
DANVILLE       CLOUDY    21  14  72 W14       30.43S WCI   8
DECATUR        CLOUDY    21  12  68 W20       30.51R WCI   6
EFFINGHAM      CLOUDY    25  16  68 W14       30.54R WCI  13
FLORA          CLOUDY    28  16  62 NW10G16   30.53R WCI  18
GALESBURG      CLOUDY    21  15  78 W10       30.50S WCI   9
JACKSONVILLE   MOCLDY    20  12  71 NW8       30.54R WCI  11
LACON          FLURRIES  22  15  76 W7        30.48S WCI  13
LAWRENCEVILLE  CLOUDY    25  14  63 NW16      30.52R WCI  12
LITCHFIELD     CLOUDY    24  15  66 W12       30.53R WCI  13
$$


CITY           SKY/WX    TMP DP  RH WIND       PRES   REMARKS
LINCOLN        CLOUDY    22  14  71 W6G17     30.52R WCI  14
MACOMB         CLOUDY    22  14  71 NW15      30.55R WCI   8
MATTOON        CLOUDY    21  11  65 NW13      30.49R WCI   9
MT CARMEL AP   CLOUDY    26  16  66 NW13      30.52R WCI  15
OLNEY-NOBLE AP CLOUDY    27  18  69 NW16      30.53R WCI  14
PARIS          CLOUDY    21  15  75 NW15G22   30.50R WCI   8
PEORIA         CLOUDY    21  12  68 W12G23    30.51R WCI   9
PONTIAC        MIX PCPN  23  19  83 W16       30.46S WCI  10
RANTOUL        CLOUDY    23  16  75 W15G22    30.46S WCI  10
SPRINGFIELD    PTCLDY    21  12  68 NW9       30.53R WCI  11
TAYLORVILLE    CLOUDY    23  12  63 W13G24    30.53R WCI  11
$$

...REGIONAL REPORTS...


CITY           SKY/WX    TMP DP  RH WIND       PRES   REMARKS
CHICAGO O`HARE FLURRIES  23  15  71 NW14      30.38R WCI  11
KANKAKEE       FLURRIES  23  16  74 W15G22    30.43S WCI  10
MOLINE         CLOUDY    23  13  65 W13       30.49R WCI  11
MOUNT STERLING CLEAR     18  11  77 NW3       30.54R
MOUNT VERNON   NOT AVBL
PITTSFIELD     PTCLDY    23  13  65 W6        30.56R WCI  16
QUINCY         PTCLDY    20  12  71 W8        30.55R WCI  10
ROCKFORD       FLURRIES  23  16  74 W13       30.42R WCI  11
$$


CITY           SKY/WX    TMP DP  RH WIND       PRES   REMARKS
BURLINGTON     CLOUDY    22  13  68 W9        30.53R WCI  12
CEDAR RAPIDS   CLOUDY    20  18  92 NW9       30.48R WCI   9
DES MOINES     CLEAR     21  10  62 NW14      30.56R WCI   8
KIRKSVILLE     CLEAR     18  10  71 W7        30.57R WCI   9
OTTUMWA        MOCLDY    19  11  70 W7        30.54R WCI  10
ST LOUIS       MOCLDY    26  11  52 W13       30.57R WCI  15
$$


CITY           SKY/WX    TMP DP  RH WIND       PRES   REMARKS
TERRE HAUTE    CLOUDY    22  12  65 W13G21    30.49R WCI  10
EVANSVILLE     CLOUDY    28  15  58 NW10      30.52R WCI  19
INDIANAPOLIS   FLURRIES  22  14  71 W12       30.42R WCI  10
LAFAYETTE      FLURRIES  21  14  74 W15G24    30.44R WCI   8
MADISON        FLURRIES  23  16  74 W9        30.36R WCI  13
MILWAUKEE      PTCLDY    25  15  66 W14       30.32R WCI  13
$$





USA.gov is the U.S. government's official web portal to all federal, state and local government web resources and services.